[Date Prev][Date Next][Thread Prev][Thread Next] - [Date Index][Thread Index][Author Index]

2 Line ISS Keps 9-9



ISS
1 25544U 98067A   01252.21399419  .00043230  00000-0  56330-3 0  4467
2 25544  51.6413  25.7959 0008247  81.1022 341.7055 15.58247530160196


----
Via the sarex mailing list at AMSAT.ORG courtesy of AMSAT-NA.
To unsubscribe, send "unsubscribe sarex" to Majordomo@amsat.org



AMSAT Top AMSAT Home